Regional Weather Roundup
Issued by NWS

Home | Current Version | Previous Version | Text Only | Print | Product List | Glossary On
Versions: 1 2 3 4 5 6 7 8 9 10 11 12 13 14 15 16 17 18 19 20 21 22 23 24 25 26 27 28 29 30 31 32 33 34 35 36 37 38 39 40 41 42 43 44 45 46 47 48 49 50
000
ASUS43 KMKX 210920
RWRWI

WISCONSIN REGIONAL WEATHER ROUNDUP
NATIONAL WEATHER SERVICE MILWAUKEE/SULLIVAN WI
400 AM CDT MON MAY 21 2018

NOTE: "FAIR" INDICATES FEW OR NO CLOUDS BELOW 12,000 FEET WITH NO
SIGNIFICANT WEATHER AND/OR OBSTRUCTIONS TO VISIBILITY.

WIZ001-002-006>008-014>016-023>028-211000-
NORTHWEST WISCONSIN

CITY           SKY/WX    TMP DP  RH WIND       PRES   REMARKS
SUPERIOR ARPT  FAIR      33  32  95 CALM      30.17S
ASHLAND        FAIR      35  33  92 CALM      30.18S
HAYWARD        FAIR      39  35  86 CALM      30.19R
SIREN          FAIR      39  34  83 CALM      30.17S
CUMBERLAND     FAIR      43  36  75 CALM      30.18R
RICE LAKE      FAIR      43  41  93 CALM      30.20R
CHETEK         FAIR      43  40  91 E6        30.19R
LADYSMITH      FAIR      43  38  82 CALM      30.21R
EAU CLAIRE     CLOUDY    49  45  86 NE5       30.17R
MENOMONIE      CLOUDY    55  46  73 E8        30.17S
NEW RICHMOND   CLOUDY    54  43  68 E3        30.16R
OSCEOLA        MOCLDY    50  41  72 E3        30.18S
$$

WIZ003>005-009-010-017-018-211000-
NORTH CENTRAL WISCONSIN

CITY           SKY/WX    TMP DP  RH WIND       PRES   REMARKS
MANITOWISH WTR FAIR      36  36 100 CALM      30.22R
ARBOR VITAE    FAIR      41  38  88 CALM      30.21S
WOODRUFF       FAIR      41  38  88 CALM      30.21S
RHINELANDER    FAIR      37  34  89 CALM      30.22F
EAGLE RIVER      N/A     35  35 100 CALM      30.21F FOG
LAND O LAKES   FAIR      33  33  99 CALM      30.23S
PHILLIPS       FAIR      35  33  93 CALM      30.20S
TOMAHAWK       FAIR      32  30  94 CALM      30.22S
MEDFORD        FAIR      37  33  87 E5        30.19F WCI  33
MERRILL        FAIR      36  34  92 CALM      30.22S
$$

WIZ029-030-035-036-043>047-211000-
CENTRAL WISCONSIN

CITY           SKY/WX    TMP DP  RH WIND       PRES   REMARKS
WAUSAU         FAIR      41  35  79 CALM      30.19S
MOSINEE        FAIR      43  30  61 NE6       30.21S
MARSHFIELD     FAIR      45  36  70 E3        30.18S
STEVENS POINT  NOT AVBL
WAUPACA        FAIR      40  37  89 N3        30.21S
WAUTOMA        MOCLDY    44  39  82 CALM      30.19
WISC RAPIDS    FAIR      46  36  68 E6        30.19F
CAMP DOUGLAS   MOCLDY    46  46 100 CALM      30.16F
$$

WIZ011>013-019>022-031-037>040-048>050-211000-
NORTHEAST WISCONSIN

CITY           SKY/WX    TMP DP  RH WIND       PRES   REMARKS
ANTIGO         FAIR      35  31  84 NE5       30.21S WCI  31
SHAWANO        FAIR      41  38  88 CALM      30.21S
OCONTO         FAIR      34  34  99 CALM      30.21S
STURGEON BAY   FAIR      42  31  64 E6        30.21F
GREEN BAY      FAIR      40  36  86 N3        30.21S
MANITOWOC      FAIR      40  33  76 CALM      30.21S
APPLETON       FAIR      43  27  52 NE3       30.18S
CLINTONVILLE   FAIR      39  34  82 CALM      30.21S
OSHKOSH        FAIR      47  37  68 CALM      30.18S
$$

WIZ032>034-041-042-053>061-211000-
SOUTHWEST WISCONSIN

CITY           SKY/WX    TMP DP  RH WIND       PRES   REMARKS
LA CROSSE      CLOUDY    58  50  75 SE5       30.14F
SPARTA         MOCLDY    51  48  91 E3        30.16F
VIROQUA        CLOUDY    52  51  95 E7        30.14F
BOSCOBEL       MOCLDY    55  49  80 CALM      30.14F
PRAIRIE DU CHI MOCLDY    55  46  71 CALM      30.12F
PLATTEVILLE    MOCLDY    51  48  89 NE7       30.12F
$$

WIZ056-057-062-063-064-067-068-211000-
SOUTH CENTRAL WISCONSIN

CITY           SKY/WX    TMP DP  RH WIND       PRES   REMARKS
REEDSBURG      CLOUDY    50  43  75 E5        30.17R
BARABOO/DELLS  CLOUDY    50  38  62 E3        30.17S
LONE ROCK      CLOUDY    54  44  69 NE7       30.14F
MINERAL POINT  MOCLDY    52  45  76 E8        30.13S
MADISON        CLOUDY    50  42  74 NE6       30.14F
MIDDLETON      FAIR      51  43  73 NE5       30.15F
WATERTOWN      FAIR      48  44  84 NE5       30.14F
MONROE         RAIN      50  43  76 NE7       30.13S
JANESVILLE     CLOUDY    50  43  76 E6        30.15S
$$

WIZ051-052-058>065-066-070>072-211000-
SOUTHEAST WISCONSIN

CITY           SKY/WX    TMP DP  RH WIND       PRES   REMARKS
MILWAUKEE      MOCLDY    47  42  83 NE7       30.16F
WAUKESHA       FAIR      43  37  81 NE5       30.17S
MILWAUKEE/TIMM FAIR      45  36  70 NE5       30.18S
RACINE         MOCLDY    45  44  97 NE8       30.18S
BURLINGTON     MOCLDY    46  41  82 CALM      30.16S
KENOSHA        CLOUDY    47  43  86 NE3       30.16S
FOND DU LAC    FAIR      45  36  70 NE3       30.17F
SHEBOYGAN      FAIR      40  34  79 NE6       30.18F
WEST BEND      FAIR      41  39  93 CALM      30.17F
JUNEAU         CLOUDY    47  39  74 CALM      30.17F
$$

LSZ147-162-211000-
LAKE SUPERIOR

STATION/POSITION TIME  TEMP    WIND        PRES    WAVE
                       AIR SEA DIR/SP/G            HT/PER
                 (UTC) (F)     (DEG/KT/KT) (MB)    (FT/S)
W MID LAKE BUOY  0850   42 35   CALM  /  2 1022.2S   0
DEVILS ISLAND    0900   52     150/  3/  4 1022.1R
SAXON HARBOR     0840   39     200/  2/  3 1021.3R
$$

LMZ867-665-643>646-211000-
LAKE MICHIGAN

STATION/POSITION TIME  TEMP    WIND        PRES    WAVE
                       AIR SEA DIR/SP/G            HT/PER
                 (UTC) (F)     (DEG/KT/KT) (MB)    (FT/S)
NORTHPORT PIER   0840   41                 1023.4S
KEWAUNEE LAKESHO 0854   46      10/  3/  6 1022.1F
SHEBOYGAN LAKESH 0900   46      20/ 11/ 12 1022.4F
PORT WASHINGTON  0840   47      10/  4/  7 1022.7F
MILWAUKEE LAKESH 0900   46      20/ 11/ 12   N/A
KENOSHA   LAKESH 0900   46                 1021.0
$$

TC  - TEMPERATURE IN CELSIUS
VSB - VISIBILITY IN STATUTE MILES
WCI - WIND CHILL INDEX
HX  - HEAT INDEX




USA.gov is the U.S. government's official web portal to all federal, state and local government web resources and services.